Wind_Speed
12 13 14 16 16 15 16 18 19 21 23 23 28 34 33 29 25 23 23 24 23 23 23 22 21 22 22 21 20 20 19 18 19 21 21 20 22 24 25 25 25 25 25 26 26 24 22 22 21 21 21 20 18 18 18 18 17 17 16 15 15 16 17 16 16 16 15 14 13 13 13 13 13 13 13 13 12 11 11 11 11 11 10 10 10
15 16 17 18 18 17 17 18 19 19 19 17 17 24 26 24 23 24 25 24 22 22 23 24 25 26 26 24 21 20 19 18 19 21 21 22 23 25 26 26 25 25 26 26 25 23 22 21 20 21 21 20 18 18 18 18 17 17 16 15 15 16 16 16 16 17 17 16 14 14 14 14 14 14 14 14 13 11 11 11 12 12 11 11 11
17 17 18 19 20 20 19 19 20 19 17 14 13 19 23 23 24 26 26 24 22 23 24 26 26 27 28 27 23 21 20 19 20 21 21 22 24 26 26 26 26 26 25 25 24 23 21 20 21 21 20 19 19 18 18 19 18 17 16 15 15 16 16 16 17 18 18 17 15 14 15 16 16 16 15 14 13 12 12 12 12 12 12 12 12
18 18 18 19 19 20 20 20 20 20 18 16 15 19 23 25 25 26 26 25 24 24 26 27 27 28 28 28 25 22 21 21 21 21 22 23 25 26 27 26 26 26 25 24 24 23 22 22 22 21 20 20 20 20 20 20 19 18 16 15 15 16 16 17 17 19 20 19 17 16 17 17 16 16 15 15 13 13 12 12 12 12 13 13 13
17 17 18 19 20 21 22 22 21 21 21 20 19 20 23 25 26 27 27 27 27 27 28 28 28 28 27 27 25 23 22 21 21 21 22 24 26 27 27 26 25 26 25 26 26 23 22 23 23 21 21 20 20 20 21 20 19 18 17 16 15 16 17 18 18 19 21 20 18 17 18 17 16 16 15 14 14 13 13 13 12 13 13 14 14
18 18 18 19 20 21 23 23 23 22 22 22 22 23 24 25 27 28 28 28 27 28 29 29 29 28 27 27 26 24 23 22 22 22 23 24 26 27 26 24 23 24 25 26 26 24 22 23 23 22 21 21 21 21 20 20 19 18 18 17 17 17 18 18 19 20 22 22 19 18 19 17 16 16 15 14 13 13 13 13 12 13 14 14 15
19 19 19 20 21 22 23 24 25 24 24 23 23 24 25 27 28 29 29 28 27 27 28 29 29 28 27 28 27 25 24 23 23 23 24 24 25 26 26 24 22 23 24 26 26 24 23 23 22 21 21 21 21 20 19 19 19 18 18 19 19 18 18 18 20 22 24 23 20 20 20 19 18 17 16 14 13 13 13 13 13 14 14 15 16
20 20 21 22 22 23 24 25 27 26 25 25 25 24 25 26 28 30 30 30 29 28 28 28 28 27 27 28 28 27 25 25 24 25 25 25 25 27 27 24 22 23 24 25 26 24 23 22 22 21 21 21 20 19 19 19 19 19 19 19 19 18 18 19 20 21 21 20 21 21 20 19 19 18 16 14 12 12 14 14 14 14 14 16 16
22 22 22 23 23 23 25 27 28 28 26 24 25 26 26 25 26 28 29 30 30 29 28 28 27 27 27 28 29 29 28 26 26 26 27 27 28 27 26 24 23 24 25 26 25 23 21 21 21 20 20 19 19 18 19 19 19 18 19 19 18 18 18 19 19 19 19 19 21 22 22 21 20 18 17 15 13 14 16 15 13 13 14 15 16
22 23 23 23 24 25 26 28 28 27 26 24 24 25 26 26 25 25 26 28 28 28 28 27 27 27 27 28 29 30 29 28 27 27 27 29 29 27 25 24 24 24 25 26 25 22 20 19 19 19 18 18 18 18 18 19 18 17 16 17 18 18 17 18 18 18 19 19 21 22 23 23 21 20 18 17 16 16 17 16 14 13 13 14 16
22 22 23 23 24 25 27 27 26 26 26 24 24 23 24 25 25 24 25 27 28 28 27 27 26 26 28 29 29 30 30 29 28 28 29 30 30 28 25 24 24 24 24 24 21 19 18 18 18 18 18 18 18 18 18 19 18 17 16 16 16 15 15 16 17 18 18 19 20 21 23 24 23 22 20 19 18 18 18 17 15 13 11 11 13
21 21 22 22 22 24 26 26 25 26 27 26 24 22 21 22 24 24 24 25 26 26 26 27 27 26 28 29 29 30 30 29 29 30 30 30 29 27 25 24 23 23 22 21 19 18 18 18 18 18 18 18 18 19 19 19 18 18 17 17 16 15 15 15 16 17 17 19 21 21 22 23 25 24 23 21 20 19 18 18 15 13 12 11 12
21 21 21 21 21 23 25 26 25 26 26 25 24 21 19 18 20 23 24 24 25 25 25 26 25 25 27 28 28 28 29 29 30 31 32 32 30 27 26 25 24 22 21 20 18 18 17 17 17 17 16 16 16 17 17 18 18 18 18 18 18 17 16 16 16 16 17 19 20 20 21 24 27 29 27 22 19 18 18 16 15 14 14 14 15
21 21 21 21 21 22 24 25 25 25 23 22 22 20 18 17 19 21 23 24 25 26 26 26 26 26 27 27 28 28 29 30 31 33 34 33 30 27 27 25 24 22 21 19 17 16 16 16 15 15 15 14 15 15 15 16 16 17 17 18 19 19 18 18 18 17 17 18 18 18 20 23 25 25 22 17 16 17 17 16 15 15 15 16 18
21 22 21 21 21 22 23 24 23 23 21 19 17 17 16 16 17 19 21 23 24 25 26 26 26 27 28 30 31 30 30 32 33 34 35 32 29 27 27 25 23 22 20 18 17 16 16 15 14 13 13 13 13 14 14 14 15 16 16 17 18 19 19 19 18 18 18 17 16 16 17 20 20 18 15 14 15 16 16 17 17 17 18 18 20
21 22 22 22 22 22 23 24 23 21 20 16 14 13 14 15 18 20 21 21 21 22 23 25 27 28 29 31 32 32 33 34 33 32 32 31 29 27 26 24 23 21 19 17 17 16 15 14 13 12 12 12 13 13 14 14 14 15 15 15 16 17 18 18 18 18 18 17 16 16 16 18 19 17 15 16 17 17 18 19 19 19 20 20 22
21 22 23 23 23 22 23 23 23 21 20 18 15 14 16 15 15 18 18 17 18 18 16 17 22 27 30 31 32 33 34 33 32 33 33 31 29 27 25 23 22 20 18 17 17 16 15 14 13 12 12 13 13 13 14 14 14 15 14 14 15 16 17 17 17 18 17 16 16 17 17 19 20 19 18 18 18 19 19 20 20 21 22 23 25
21 21 22 22 22 21 20 20 22 22 20 19 17 16 17 18 13 10 10 10 12 12 10 9 13 20 26 29 31 33 34 32 33 35 34 32 29 27 24 22 21 19 19 18 18 17 16 15 14 14 13 13 14 14 14 14 15 15 15 14 15 16 16 16 16 16 16 16 16 18 20 21 21 20 19 19 19 20 20 21 22 23 23 24 25
20 20 20 20 21 21 19 17 19 21 21 20 19 16 14 15 14 6 1 3 6 10 10 13 16 20 24 27 29 30 31 31 31 32 32 31 28 26 23 21 20 19 19 19 18 18 17 16 16 15 14 15 15 14 14 14 15 15 15 15 16 16 16 15 16 16 16 16 17 19 20 20 18 17 18 18 19 20 20 21 21 22 22 23 24
19 18 18 18 19 20 19 17 16 18 19 19 19 17 13 12 12 7 2 4 6 9 12 15 16 20 25 27 26 26 27 28 28 29 29 27 26 24 23 22 21 20 20 20 19 18 17 17 17 17 16 16 16 15 14 15 16 17 17 16 16 17 16 15 15 16 16 15 16 17 17 17 17 17 18 18 19 19 20 20 21 22 24 25 25
17 16 16 17 18 19 20 18 16 15 15 14 14 14 13 12 11 11 10 9 7 7 9 10 13 19 25 27 25 26 28 29 29 28 25 23 22 22 22 22 22 21 21 20 18 17 17 17 18 18 18 17 16 15 14 14 16 18 18 17 17 16 15 15 15 15 16 16 16 16 16 16 16 17 18 19 20 20 21 22 24 25 26 26 27
16 16 15 16 17 17 18 18 16 15 15 13 9 8 9 10 11 12 13 8 6 7 9 12 15 19 24 25 24 25 27 28 26 24 23 22 21 21 21 21 22 22 21 19 18 17 17 19 20 20 18 17 16 16 15 16 16 17 18 18 18 18 17 18 17 16 16 17 16 16 16 17 18 18 19 20 21 22 23 25 26 27 27 28 29
16 16 16 16 16 15 16 16 16 15 15 14 9 5 3 5 7 10 11 10 9 9 8 12 17 20 21 22 23 24 23 20 16 16 19 21 21 21 21 22 22 22 21 19 18 18 19 20 21 20 19 18 17 17 17 17 17 18 18 18 19 19 19 19 19 17 17 17 17 17 18 19 19 20 21 22 23 24 25 26 27 28 28 29 30
16 16 16 16 15 15 15 15 15 14 13 12 9 5 3 3 5 8 10 11 12 11 10 12 15 19 21 22 24 25 23 20 17 15 18 22 23 23 24 24 25 24 23 20 19 20 20 19 20 21 20 19 17 17 17 17 17 17 18 18 17 17 17 17 17 16 16 17 17 18 19 20 21 22 23 23 24 25 26 27 27 28 28 29 29
16 16 16 15 15 16 16 16 15 14 12 10 9 7 5 3 3 6 9 11 14 15 15 14 15 18 22 24 25 25 24 25 24 22 22 24 26 26 27 28 27 26 24 21 20 21 21 20 20 20 20 18 18 17 16 16 17 17 17 17 16 16 16 16 16 17 18 18 19 20 20 21 22 23 23 24 25 25 26 26 27 27 27 26 26
16 15 16 15 15 15 15 16 16 16 15 12 9 8 7 5 3 2 4 7 11 15 17 17 17 19 21 24 26 27 27 26 25 24 25 27 28 29 29 30 28 26 23 23 23 23 23 21 20 19 18 18 18 18 17 17 17 17 17 17 16 16 16 16 17 18 19 19 20 20 21 21 22 23 24 24 25 25 25 25 25 24 24 23 24
15 15 16 16 16 15 15 15 15 15 15 14 13 12 10 8 6 5 3 3 6 11 15 17 19 20 20 21 24 26 28 27 26 25 27 28 28 29 28 28 27 26 24 24 24 24 23 22 21 20 19 19 20 20 19 18 17 17 17 17 17 17 17 17 18 18 19 19 19 20 20 21 22 22 23 23 23 23 23 23 22 22 22 22 23
14 15 16 17 17 17 16 15 15 14 13 13 13 13 12 11 11 10 9 7 5 7 10 14 16 18 19 20 21 24 26 28 28 29 29 29 28 29 29 29 29 28 28 28 27 26 26 25 23 22 22 22 22 20 18 17 17 17 17 17 18 18 17 17 17 17 18 18 19 19 19 20 20 21 21 21 20 20 20 20 20 21 21 22 23
13 14 15 16 17 17 17 16 16 15 13 12 12 11 11 12 12 13 13 12 10 9 9 11 13 16 17 18 20 22 24 26 28 30 31 31 31 32 32 32 32 32 32 32 32 31 30 28 25 25 25 24 22 19 18 17 17 17 17 17 16 16 16 15 16 16 17 17 18 18 19 19 19 19 18 18 18 18 19 19 20 20 21 23 24
13 13 13 14 15 16 16 16 16 15 14 14 13 12 12 12 12 12 13 13 13 12 11 11 12 13 14 14 15 17 20 23 25 28 29 30 31 33 33 33 32 32 32 32 32 31 29 28 27 26 25 24 22 20 18 17 15 14 14 14 13 14 14 14 15 15 16 17 17 17 17 17 16 16 16 17 17 18 18 19 20 21 22 24 25
12 12 12 12 13 14 15 15 15 15 14 14 14 13 12 12 12 12 12 13 13 13 13 12 12 13 13 13 14 15 16 18 21 24 26 28 28 29 31 31 31 31 31 31 31 30 28 27 26 26 25 23 21 17 14 11 10 10 11 11 11 12 12 13 14 15 15 15 15 15 15 15 15 15 16 16 17 18 19 20 22 23 24 25 26
12 12 12 12 12 13 14 14 15 15 15 14 13 13 13 12 12 11 11 11 11 12 12 12 11 12 12 12 13 14 15 16 18 20 23 26 29 30 31 32 33 33 33 32 32 30 28 26 25 23 21 18 14 11 10 10 10 10 10 10 10 11 12 13 13 14 14 14 14 14 14 14 15 15 16 17 18 19 20 21 22 23 23 24 24
13 12 12 12 12 12 13 13 13 14 14 14 14 13 13 13 13 12 11 10 9 9 10 10 9 9 8 9 9 10 11 13 15 17 19 21 24 27 28 30 31 31 30 31 31 31 28 25 21 18 15 13 11 10 10 10 10 9 9 9 10 10 11 12 13 13 13 13 13 13 13 14 14 15 16 18 19 20 21 21 21 21 21 21 21
14 13 13 13 13 13 13 12 12 12 13 13 13 13 13 13 13 12 12 10 10 9 8 8 7 6 5 4 5 6 7 8 10 12 14 15 17 18 19 21 22 22 23 25 26 26 24 20 17 14 12 10 8 7 6 6 6 7 7 8 9 10 11 12 12 13 13 13 12 12 13 14 15 16 17 18 19 19 19 19 19 19 19 19 19
15 15 15 14 14 14 13 13 12 12 12 12 13 13 13 12 12 12 11 11 10 9 7 7 6 5 4 2 0 2 5 7 8 9 10 10 11 12 13 14 14 14 16 17 18 18 17 16 14 12 9 6 4 4 4 5 6 7 8 9 10 11 11 12 12 12 11 11 12 12 13 14 15 16 17 17 17 18 18 18 18 18 18 18 18
15 15 16 16 15 15 15 14 14 14 14 13 13 12 12 12 11 11 10 10 10 9 8 7 6 5 4 3 2 1 2 4 6 7 8 9 10 11 12 12 13 13 13 13 12 12 12 11 10 9 7 5 4 4 5 6 7 8 9 10 10 10 10 10 10 10 11 11 12 13 13 14 14 15 15 16 16 16 16 16 16 16 16 16 16
16 16 17 17 17 18 17 17 17 16 15 14 13 13 12 11 10 10 9 9 9 8 8 8 7 6 5 4 3 3 2 2 2 3 5 6 7 8 9 10 11 12 13 13 12 11 10 9 8 6 5 4 5 5 6 7 8 9 9 10 9 9 9 9 10 10 11 11 11 12 12 12 13 14 14 15 15 15 15 15 15 15 15 15 16
18 18 18 18 18 19 19 19 18 18 17 17 17 15 14 12 11 10 9 8 7 7 7 7 7 6 5 4 3 2 2 1 1 2 2 3 4 5 6 6 7 8 9 10 10 9 9 8 6 4 3 4 5 6 7 7 8 8 9 9 8 8 9 9 9 10 10 10 10 10 11 11 12 13 13 14 14 14 14 14 14 14 14 14 14
17 17 17 18 18 18 18 18 18 18 19 19 19 19 17 16 14 12 10 9 8 7 7 6 6 6 5 4 3 2 1 0 0 1 2 2 3 4 5 5 5 5 6 6 6 6 5 5 4 4 4 5 5 6 6 6 7 7 8 8 8 8 8 8 8 8 8 8 9 10 10 11 11 12 12 12 12 12 13 13 13 13 13 13 14
16 16 16 16 16 17 17 17 18 18 18 18 19 19 19 18 17 16 14 12 10 9 8 7 6 6 6 5 5 4 2 2 2 2 3 4 4 4 4 4 4 4 4 4 3 3 3 3 3 4 5 6 6 6 6 7 7 8 8 8 8 7 7 6 7 7 7 7 8 9 9 10 10 10 11 11 11 12 12 12 12 12 12 13 14
15 15 15 15 15 15 16 16 16 16 15 16 17 18 19 20 19 18 16 15 13 12 11 9 7 6 5 5 6 6 4 4 4 4 5 5 6 5 5 4 4 3 3 3 3 3 4 5 5 6 6 7 7 7 8 8 9 9 8 7 6 6 5 5 5 5 6 6 7 8 8 9 9 9 9 10 10 11 11 11 12 12 13 13 13
15 15 15 15 14 14 15 15 16 15 15 14 15 16 19 20 20 19 18 16 15 14 13 11 10 8 6 4 6 7 6 5 5 5 6 7 7 7 6 5 5 4 4 5 5 6 6 7 7 7 8 8 9 9 9 9 8 8 7 6 5 5 4 4 4 4 5 6 6 7 8 8 8 9 9 9 10 10 11 12 12 13 13 13 13
15 15 15 15 15 14 15 15 16 16 16 15 15 15 18 19 19 19 18 17 15 15 13 11 11 11 9 5 4 6 6 6 7 7 8 8 8 8 7 7 7 7 7 7 7 7 8 8 9 9 10 10 10 10 9 8 7 6 5 5 4 3 2 2 3 3 4 5 6 6 7 7 8 8 9 10 10 11 12 12 12 12 12 13 12
16 16 16 15 15 14 14 15 16 17 17 17 16 16 17 18 18 18 17 16 16 15 14 11 9 11 12 9 5 5 6 6 8 9 9 9 9 9 9 9 9 9 9 9 9 9 9 10 10 10 10 10 9 8 8 7 6 5 5 4 2 0 1 2 3 3 4 4 5 5 6 7 7 8 8 9 10 11 11 11 11 11 11 12 12
16 17 17 17 16 15 14 14 15 16 17 17 17 18 17 17 17 17 16 14 14 16 17 14 11 13 15 12 7 5 6 7 9 11 11 11 11 11 10 10 10 10 10 9 9 10 10 11 10 10 10 9 8 8 8 7 6 5 4 3 2 2 2 2 2 3 3 4 4 5 6 7 7 7 8 8 8 9 10 10 11 11 11 11 11
16 16 17 17 17 16 15 14 14 16 17 17 17 18 18 19 18 16 14 13 14 16 18 19 18 16 16 14 10 6 5 7 10 12 13 12 12 12 11 11 11 10 10 10 10 11 11 10 10 9 9 9 9 8 8 7 6 5 4 4 4 3 3 3 2 3 3 4 5 5 6 6 6 6 6 7 7 8 9 10 10 10 10 11 10
15 16 17 17 17 17 16 16 16 17 17 17 17 18 18 19 18 14 12 12 14 16 19 21 21 19 17 16 15 11 6 8 11 12 13 13 12 12 12 12 11 11 11 11 11 11 11 10 10 10 10 9 9 9 8 7 6 6 5 5 4 4 4 4 4 4 5 5 5 5 5 5 5 6 7 8 8 9 9 10 10 10 10 10 9
15 15 16 16 17 17 17 17 17 17 17 17 17 17 18 19 16 11 9 11 14 16 18 20 21 20 18 17 17 14 8 8 11 12 13 13 13 12 12 12 11 11 12 12 12 12 11 11 11 11 11 10 10 9 9 8 7 7 6 6 5 5 4 5 5 5 5 5 4 4 5 5 6 7 8 8 8 9 9 9 9 8 8 8 8
16 16 16 16 17 17 17 17 17 17 17 17 17 16 17 18 15 10 7 10 12 13 15 18 20 19 18 17 16 14 10 8 10 12 12 12 12 12 11 11 11 12 12 12 12 12 13 13 12 12 12 11 10 10 9 8 8 7 6 6 5 5 4 4 4 4 4 4 5 5 6 6 7 7 8 8 7 7 7 7 7 7 7 7 7
16 16 17 17 18 18 18 18 18 17 17 17 17 17 17 17 15 12 10 10 11 11 14 17 19 17 16 15 13 11 11 9 9 10 11 11 11 11 10 10 11 12 12 13 13 13 13 13 13 12 12 11 10 9 9 8 7 7 6 6 5 5 4 3 3 3 4 4 5 6 6 7 7 7 7 7 6 6 6 7 7 7 7 7 7
16 17 18 19 19 19 18 18 17 17 17 17 17 17 16 15 15 13 11 11 11 11 13 16 17 14 13 15 15 12 11 11 9 9 10 10 10 10 10 10 11 12 12 13 13 13 14 13 13 12 11 11 10 9 9 8 7 7 6 6 6 5 4 4 3 3 4 4 4 4 5 5 6 6 6 6 6 6 7 7 7 7 7 7 7
Wind_Direction
306 300 295 292 293 296 299 299 300 304 303 282 255 246 245 249 257 261 260 262 265 266 259 256 265 272 277 282 278 271 270 263 251 244 239 233 231 231 233 234 230 226 225 226 226 225 222 220 220 225 229 230 231 232 233 232 232 231 230 229 227 226 228 233 238 240 238 234 233 232 230 229 227 224 219 218 220 223 230 234 234 235 239 241 239
300 300 299 298 298 299 298 299 300 303 309 299 263 242 241 248 257 257 254 256 260 260 259 262 268 271 274 277 277 270 266 261 253 245 237 233 233 232 230 231 229 225 225 228 226 222 220 219 219 223 227 229 231 231 231 232 233 234 233 230 227 227 229 233 238 242 242 240 236 231 228 226 225 223 221 221 224 228 233 237 239 242 245 247 246
304 306 306 305 305 305 302 298 295 293 297 296 267 240 238 248 255 253 251 254 258 260 263 266 269 271 272 272 271 266 260 257 253 247 240 236 236 234 231 229 226 223 225 228 226 220 219 220 220 223 225 227 229 229 228 230 232 233 233 231 229 228 230 232 236 243 245 244 241 233 228 228 227 227 227 227 229 232 236 239 242 245 248 250 250
309 310 311 311 311 311 309 303 296 290 284 279 262 245 243 250 254 253 254 257 260 262 265 268 270 270 269 267 266 263 257 254 251 247 243 239 239 238 233 227 223 221 221 223 222 216 215 219 221 222 224 227 228 227 227 229 232 233 233 232 230 229 230 232 234 240 244 245 242 238 234 233 233 233 233 232 232 234 237 239 241 245 248 248 248
308 308 308 309 312 313 311 308 302 294 285 277 266 255 251 251 253 255 257 259 260 262 265 268 270 270 266 261 262 261 255 251 250 245 242 243 244 241 232 223 219 219 219 220 221 216 213 219 222 222 224 226 228 228 228 229 232 233 234 234 231 229 230 232 233 237 242 244 242 239 238 236 236 238 237 236 237 238 238 240 243 247 248 246 245
304 304 305 307 310 312 311 309 305 299 292 283 273 265 259 255 254 255 257 258 260 261 262 264 266 267 262 256 257 259 252 248 248 243 241 244 244 235 224 218 218 220 218 219 221 217 216 221 224 224 226 227 229 230 230 231 233 235 236 236 233 231 230 232 234 235 238 239 238 237 237 235 235 236 237 239 242 242 240 242 244 245 243 240 240
300 300 302 305 309 311 312 313 310 305 298 291 283 274 266 260 258 257 257 258 259 258 259 260 261 262 258 252 252 256 250 245 243 241 240 241 234 224 219 217 220 224 222 222 222 217 216 222 225 225 227 227 228 231 231 232 233 234 235 235 235 234 233 233 236 237 235 233 234 235 234 234 234 233 235 239 243 244 244 247 248 246 240 234 234
297 298 300 303 307 309 312 314 313 309 303 297 292 286 277 268 262 259 259 259 258 257 257 257 257 257 254 249 249 252 250 244 239 238 239 233 222 219 220 219 220 226 227 226 224 218 215 220 224 225 227 228 228 230 230 231 232 233 234 234 234 234 233 233 237 242 239 234 234 236 235 234 233 232 234 238 240 242 246 249 250 252 247 238 234
297 298 300 303 306 307 310 313 312 309 303 298 295 292 286 277 267 261 260 259 258 258 256 255 254 253 251 249 247 248 249 243 237 237 235 224 217 220 223 223 224 227 227 227 226 222 218 220 223 225 226 227 228 228 230 232 233 235 235 234 233 232 234 235 237 241 241 237 235 236 235 234 232 232 235 237 236 240 247 250 251 253 251 242 238
297 298 301 304 306 307 310 314 315 313 307 300 296 293 287 282 274 265 259 257 256 256 255 254 253 251 250 248 245 245 245 240 234 233 228 218 216 220 221 225 229 227 227 227 222 218 217 219 223 225 225 226 229 229 231 233 234 235 235 235 234 232 234 238 239 239 241 241 239 238 237 236 234 233 234 235 235 241 248 251 251 254 253 247 243
299 299 300 302 303 305 308 313 318 320 315 307 300 294 288 281 276 269 261 257 255 254 254 254 252 250 248 246 243 242 241 235 229 227 222 216 216 217 218 225 229 224 224 225 220 212 212 216 221 224 225 227 230 232 233 235 237 237 235 236 237 236 236 239 241 240 240 241 242 240 239 236 234 234 233 233 236 242 247 250 252 256 257 252 251
302 303 302 301 301 302 306 311 317 320 318 312 305 298 290 281 276 273 268 262 258 255 253 251 250 248 245 242 241 241 236 228 223 222 220 217 214 214 218 223 222 218 217 218 218 215 214 217 222 225 228 230 231 234 235 236 238 237 235 236 237 239 239 238 239 239 239 241 241 237 233 229 229 231 231 230 236 243 248 253 256 256 254 251 251
306 306 305 303 300 301 305 310 316 319 317 312 308 304 296 283 274 272 271 268 264 258 253 251 248 246 242 238 238 236 226 219 218 218 217 214 210 210 217 217 212 212 215 213 214 217 217 220 223 225 228 229 230 233 233 234 236 236 237 237 236 238 238 236 237 238 240 245 244 237 231 227 226 227 224 223 233 246 253 257 257 253 250 249 251
308 307 307 306 304 304 307 312 318 319 315 311 310 308 301 286 274 270 268 267 264 259 255 252 245 240 238 235 231 226 219 215 215 215 213 210 208 209 212 210 205 206 211 211 211 213 215 216 218 220 223 224 226 229 230 230 232 233 236 237 237 237 235 233 236 239 241 248 249 241 234 231 230 229 225 223 235 249 254 255 254 252 253 255 258
308 308 309 310 309 307 308 312 317 319 316 309 303 304 303 291 281 277 271 267 265 260 255 249 240 236 235 232 225 217 213 212 212 212 210 205 204 207 207 202 201 202 204 206 207 208 210 210 212 217 222 226 229 231 231 231 231 232 235 237 236 235 234 233 236 240 243 245 243 237 231 227 228 233 235 236 244 251 252 253 255 257 262 265 268
309 309 310 310 310 309 308 310 314 317 318 312 302 306 309 296 284 280 276 269 262 255 249 244 239 235 231 228 222 212 206 205 204 204 203 199 198 202 201 198 199 199 199 201 203 206 209 211 215 223 230 236 239 239 239 237 235 235 236 237 236 234 233 235 237 241 243 240 233 230 225 221 224 231 236 241 247 250 252 256 259 263 267 270 272
309 309 310 310 310 310 308 309 311 312 314 315 316 324 331 323 298 277 268 262 255 250 250 249 240 232 227 223 217 207 202 201 200 199 198 194 194 198 197 195 196 195 196 200 203 207 213 217 224 233 240 246 247 246 246 244 241 240 236 234 237 237 236 237 238 239 242 240 234 230 227 224 225 229 233 240 246 250 254 259 263 266 268 270 272
310 309 310 311 311 312 309 308 309 310 310 311 314 323 339 349 339 296 265 253 236 222 219 224 225 228 227 219 208 202 201 200 198 198 196 192 192 195 194 193 195 196 199 204 207 213 219 224 231 238 244 250 252 251 249 244 240 239 234 228 232 237 239 240 240 240 241 242 241 238 233 230 228 231 237 243 250 256 260 263 264 266 268 271 274
311 310 312 313 315 317 316 313 310 310 311 312 313 319 337 356 1 359 144 187 204 211 234 245 235 229 224 210 196 193 197 200 201 199 197 192 190 191 192 194 198 201 204 209 214 219 225 231 237 242 246 253 256 255 250 242 233 228 224 222 225 230 233 234 234 235 238 241 241 240 238 237 238 244 250 254 258 263 265 268 270 273 276 278 281
313 316 320 322 323 321 321 320 314 309 310 313 317 320 330 350 2 5 333 290 275 268 277 273 249 227 214 201 193 191 193 197 199 196 193 191 189 192 195 199 203 206 210 215 219 224 231 237 242 246 250 256 257 256 251 241 227 219 218 220 223 226 228 229 230 233 237 241 242 242 244 248 252 258 262 264 267 270 273 276 279 281 283 284 285
316 319 322 324 325 322 320 320 317 307 302 306 315 322 325 331 341 345 332 308 269 243 251 250 235 219 203 192 191 196 196 196 194 190 190 190 191 196 202 207 211 215 217 220 225 231 239 245 249 251 252 251 249 249 248 239 225 221 223 227 230 231 233 235 236 239 243 246 248 249 252 256 259 262 266 269 272 275 278 281 283 284 284 285 286
318 321 321 319 320 321 321 321 318 307 297 294 299 316 328 325 322 329 330 307 243 230 238 226 214 208 199 193 194 198 197 193 189 189 192 194 194 199 208 215 220 223 224 227 231 237 245 250 252 252 246 238 235 239 242 236 227 225 229 233 236 238 239 241 243 245 247 248 250 253 256 260 263 266 270 274 277 279 281 282 283 285 286 287 289
326 328 329 326 323 324 325 325 322 310 296 290 286 286 313 315 296 300 310 296 269 264 255 225 208 201 199 199 201 201 200 196 190 192 197 198 199 204 211 218 224 226 228 231 235 243 251 252 249 243 233 227 228 235 238 235 231 230 231 233 236 236 236 237 240 242 244 246 251 257 262 266 270 273 276 278 279 280 282 283 285 286 288 290 292
340 337 337 337 335 332 332 333 332 322 303 291 289 288 288 279 261 264 274 274 267 261 250 233 219 209 206 204 203 205 209 211 211 210 208 208 210 213 218 224 227 227 228 231 236 245 250 248 239 231 224 220 224 230 231 229 227 228 231 233 234 234 234 237 241 245 250 255 261 265 268 270 272 274 276 278 280 283 285 287 289 291 292 294 296
349 345 343 343 344 342 341 340 340 339 328 306 292 291 296 300 283 262 255 254 255 255 251 245 235 228 226 223 220 221 223 223 223 223 221 217 217 220 225 229 230 229 229 233 237 239 238 234 226 220 217 216 220 225 228 227 228 230 231 232 233 235 239 244 250 254 258 262 265 267 270 273 275 278 281 283 285 287 289 291 292 294 295 296 297
348 347 346 347 348 348 348 345 340 340 343 339 323 309 302 301 314 312 267 250 249 252 255 256 254 251 247 240 237 235 233 231 232 232 230 228 227 228 229 229 228 228 229 234 236 231 225 219 214 213 215 217 220 226 228 228 229 230 232 234 238 243 247 250 253 257 260 263 266 270 274 278 280 283 285 286 288 290 291 293 294 294 294 295 296
348 349 351 351 349 346 346 346 340 335 339 344 343 337 328 318 319 331 331 284 253 250 255 260 264 264 259 253 249 244 240 240 241 237 233 232 231 228 225 223 224 224 223 224 223 218 214 210 209 211 216 218 220 224 226 228 230 232 235 240 244 247 251 254 257 261 265 269 273 276 279 281 283 285 286 288 290 291 291 292 292 293 294 294 295
354 355 355 353 350 347 345 345 342 337 334 335 337 338 337 332 327 327 328 322 301 275 267 267 268 267 264 259 255 252 250 248 244 237 230 226 223 220 216 217 221 223 220 214 209 207 210 211 209 209 213 218 221 222 224 229 235 236 239 243 246 250 255 259 263 268 271 274 277 279 281 283 284 285 286 287 287 287 288 289 290 292 294 295 297
2 1 358 355 351 350 349 347 345 343 339 334 329 328 330 330 327 325 324 320 315 306 295 285 278 274 271 266 260 256 251 245 237 230 225 222 220 218 216 215 218 219 217 212 208 208 210 212 210 209 214 220 223 222 224 230 236 238 241 245 249 254 259 262 266 270 273 276 279 280 281 282 282 283 283 283 284 286 287 289 291 293 295 298 300
2 3 0 357 353 352 352 350 349 350 350 347 340 333 328 324 320 317 315 314 312 308 300 292 286 280 277 275 268 261 254 246 238 234 230 226 223 221 220 220 220 219 217 214 211 210 211 211 211 212 215 219 220 221 224 230 236 241 246 250 253 257 261 266 270 273 275 277 278 277 278 279 279 281 283 284 287 289 291 293 295 296 298 300 302
355 358 360 359 358 357 356 354 353 354 355 357 356 352 345 337 329 321 313 309 307 305 301 294 288 282 279 278 276 271 262 253 246 243 241 238 234 229 226 225 224 223 223 221 218 216 215 214 214 215 216 216 216 216 219 225 234 242 247 252 257 263 268 272 274 275 275 275 275 276 277 279 281 284 286 288 290 292 294 296 297 299 302 304 305
350 351 355 357 357 360 2 360 356 354 356 359 2 4 3 359 356 349 339 328 319 313 309 304 297 289 284 283 282 278 269 259 251 246 244 244 242 240 236 233 230 229 227 226 225 223 220 216 213 211 209 206 204 204 210 219 230 238 246 255 263 269 272 273 273 273 273 273 275 278 281 283 285 287 288 290 292 293 295 298 300 302 304 305 305
357 355 355 354 355 358 3 3 358 356 357 359 1 3 7 10 11 11 7 2 355 346 335 328 321 311 301 294 291 287 276 262 251 244 239 238 238 238 238 237 234 231 229 229 229 227 222 215 207 200 195 193 197 208 218 225 233 240 248 257 262 265 268 268 268 269 272 274 276 279 281 283 285 287 289 292 294 296 298 300 301 302 302 303 304
4 3 1 0 359 357 359 0 357 355 358 359 359 360 4 8 12 15 17 18 19 18 13 3 355 348 340 319 296 280 265 250 238 231 227 226 225 226 227 227 226 225 225 227 227 224 218 210 200 191 188 189 196 210 225 234 242 248 250 254 256 258 260 263 266 268 270 272 274 276 279 282 285 288 291 294 296 298 299 300 300 302 304 306 308
12 11 9 9 6 3 0 359 356 355 358 359 358 359 2 5 7 9 11 15 19 23 28 31 30 27 27 26 318 236 229 220 210 201 196 195 197 201 203 203 204 205 207 209 210 207 202 197 190 181 172 169 179 208 233 244 250 251 252 253 255 257 259 261 263 265 267 269 274 278 281 285 288 291 293 296 297 298 298 300 303 306 309 311 313
20 19 16 15 13 12 10 7 3 2 2 0 359 359 1 5 7 6 5 6 10 13 18 24 32 40 44 49 64 106 177 195 196 192 185 178 174 174 174 172 171 171 171 171 172 172 171 170 166 158 150 159 191 218 232 242 248 251 254 255 255 256 258 259 261 265 269 274 277 281 285 288 291 293 295 296 297 298 301 304 308 311 313 314 313
25 24 21 20 19 19 18 17 15 12 10 8 6 3 359 359 1 4 3 360 358 0 3 5 9 20 31 40 50 60 77 105 143 168 175 175 172 167 163 160 158 154 150 146 142 138 135 133 133 135 149 180 210 224 232 240 246 249 251 251 251 251 254 258 264 269 273 277 281 285 289 292 293 294 295 297 300 304 308 312 314 315 315 313 312
27 27 26 25 24 22 21 21 21 21 21 21 19 15 11 5 358 355 356 356 353 350 348 347 348 351 358 11 30 45 58 77 105 135 149 157 160 161 158 154 147 143 140 137 133 131 130 131 135 148 179 212 228 237 241 244 246 246 245 245 246 250 256 261 266 270 274 280 286 289 291 292 293 296 299 303 307 311 314 316 317 317 317 317 317
27 27 27 27 26 23 20 19 20 21 23 24 22 19 17 13 7 358 352 347 344 342 340 337 333 330 329 332 337 343 344 107 182 188 185 176 167 163 162 157 147 140 139 138 139 141 145 151 165 191 220 237 244 247 247 245 243 242 242 246 250 254 258 262 267 274 280 285 288 289 291 295 298 302 305 309 312 314 316 317 318 319 320 321 322
25 24 23 22 22 19 17 16 16 17 18 20 19 16 14 13 11 5 359 349 339 334 334 333 329 323 318 312 304 296 280 254 228 215 211 208 198 186 179 173 165 156 151 151 155 165 183 208 225 237 245 249 249 244 239 238 239 241 243 247 250 253 259 264 269 274 279 283 288 294 299 303 306 310 312 314 316 317 317 318 319 320 322 324 324
19 17 14 12 10 9 9 10 10 10 12 15 15 12 10 9 7 5 1 355 346 338 332 327 323 324 321 306 293 286 278 262 244 227 215 208 203 199 198 196 189 180 179 187 205 224 239 246 249 250 247 241 236 232 229 229 231 233 236 238 242 246 251 256 263 271 282 293 300 306 310 313 316 318 319 319 320 320 320 321 324 325 324 323 322
8 5 3 1 358 357 358 0 1 360 1 5 6 5 2 1 0 360 358 354 348 342 335 327 322 321 319 302 287 283 277 266 251 234 220 210 203 200 202 207 208 211 217 223 228 233 238 240 238 234 229 224 222 221 222 221 222 223 224 226 228 231 237 250 272 293 307 314 317 318 320 322 323 324 324 324 323 323 323 325 326 324 321 318 317
6 1 358 356 354 351 349 349 349 348 347 348 349 352 353 352 352 353 353 351 348 342 335 329 324 321 318 309 286 276 272 262 250 238 225 216 211 209 212 218 223 225 227 230 233 234 233 230 224 219 215 213 213 212 212 211 211 211 211 212 216 221 242 296 325 333 331 328 327 327 326 327 328 330 330 329 327 325 324 323 322 318 315 315 317
6 2 358 356 354 350 347 345 343 341 339 338 338 342 346 349 350 353 353 351 349 346 341 333 319 309 311 315 304 274 261 251 241 233 226 221 219 218 220 223 226 228 230 231 232 230 223 217 213 210 208 206 204 202 200 199 199 197 196 194 192 164 25 10 360 352 344 338 336 335 335 336 338 339 337 333 329 325 323 323 322 321 320 322 325
1 360 358 356 354 351 348 346 342 338 337 337 338 342 346 349 352 354 355 355 356 357 355 349 331 310 309 316 313 276 249 240 232 227 224 223 223 223 225 226 226 228 229 227 223 218 213 208 206 203 201 199 196 191 189 187 184 179 169 152 120 86 66 50 28 11 358 353 351 349 348 348 345 341 337 335 331 328 327 329 331 331 331 331 332
355 355 354 353 352 351 349 347 343 339 338 340 341 344 349 352 351 351 353 357 0 1 358 355 348 335 323 319 318 302 259 235 227 221 218 220 223 224 226 229 230 228 225 218 212 209 207 204 202 198 195 192 187 181 177 172 164 152 138 123 111 100 92 80 61 41 24 12 6 2 357 352 346 341 340 341 342 341 341 341 342 341 339 337 335
351 351 350 349 348 348 347 346 344 344 345 346 345 346 349 350 349 348 353 359 357 352 349 348 350 346 333 320 316 313 282 236 226 220 216 216 220 222 223 227 229 227 221 214 208 206 204 200 196 192 189 183 177 171 164 156 148 139 128 121 115 107 96 81 65 53 43 30 19 12 7 360 356 353 354 356 357 356 355 354 353 351 346 342 339
347 349 350 348 346 345 345 345 345 346 347 348 347 347 349 349 347 349 3 4 352 344 342 343 347 348 340 324 317 314 295 244 227 223 218 216 218 220 222 222 221 219 215 210 205 202 198 193 189 185 180 174 167 162 155 149 141 134 126 119 112 101 88 75 64 58 54 48 38 29 22 17 13 8 6 7 7 4 2 1 360 356 351 347 344
341 345 347 346 344 342 342 342 343 344 345 346 346 347 350 351 348 344 351 350 340 331 334 340 345 348 345 333 319 310 299 267 235 225 223 220 218 219 218 215 212 210 209 206 201 196 191 186 182 177 172 166 160 155 149 142 135 128 122 116 109 98 86 76 70 65 60 54 46 39 33 27 21 16 14 12 9 5 1 0 359 355 352 349 348
335 338 341 342 341 340 339 339 339 339 340 341 342 344 349 352 348 338 331 335 334 326 326 336 345 348 346 341 329 307 291 279 254 233 226 223 220 216 214 210 208 206 203 199 195 191 186 181 177 171 165 160 155 150 144 138 133 127 122 116 111 104 95 83 72 61 54 49 44 37 32 26 21 15 10 6 1 356 352 351 352 351 347 346 349
331 334 336 337 337 338 338 338 337 337 336 337 338 339 343 347 348 339 330 332 339 335 328 334 343 344 341 345 346 329 299 285 270 245 232 228 223 218 214 209 206 204 201 196 192 188 184 178 173 168 164 160 156 151 147 142 138 134 128 122 116 109 101 88 69 48 36 33 32 27 21 14 7 2 357 352 348 344 341 342 345 345 343 344 348
Height
3113 3113 3112 3111 3111 3111 3110 3108 3107 3105 3102 3100 3099 3101 3104 3108 3110 3111 3111 3111 3111 3111 3113 3114 3115 3116 3116 3116 3116 3116 3117 3118 3119 3119 3120 3122 3124 3125 3127 3128 3130 3131 3133 3134 3136 3136 3137 3139 3141 3142 3143 3144 3145 3147 3148 3149 3150 3152 3153 3154 3155 3156 3156 3157 3158 3158 3158 3159 3160 3161 3161 3162 3162 3163 3164 3164 3165 3166 3166 3167 3167 3168 3168 3168 3169
3112 3111 3110 3109 3108 3108 3108 3106 3105 3103 3100 3098 3098 3099 3103 3106 3107 3107 3108 3108 3108 3109 3110 3112 3113 3114 3115 3114 3114 3114 3115 3116 3117 3118 3119 3120 3121 3122 3124 3125 3127 3129 3130 3131 3134 3135 3135 3136 3138 3140 3141 3142 3143 3145 3146 3147 3148 3149 3151 3152 3153 3154 3155 3155 3156 3156 3156 3157 3158 3159 3159 3160 3160 3161 3162 3162 3163 3164 3164 3165 3166 3166 3166 3167 3167
3110 3109 3108 3107 3106 3105 3105 3104 3103 3101 3100 3099 3098 3099 3102 3104 3104 3104 3105 3106 3106 3106 3107 3109 3110 3111 3112 3112 3112 3112 3112 3113 3114 3116 3117 3118 3119 3120 3122 3123 3124 3126 3127 3130 3133 3134 3133 3134 3136 3138 3139 3140 3141 3142 3143 3144 3145 3147 3148 3150 3151 3152 3153 3153 3154 3154 3154 3155 3156 3157 3157 3158 3158 3159 3160 3161 3161 3162 3163 3163 3164 3164 3165 3165 3166
3107 3107 3106 3104 3103 3102 3102 3101 3101 3100 3099 3098 3099 3100 3101 3102 3102 3102 3103 3103 3104 3104 3105 3105 3107 3108 3109 3109 3110 3110 3110 3111 3112 3113 3114 3115 3116 3117 3119 3120 3121 3123 3126 3128 3130 3131 3132 3133 3134 3135 3137 3138 3139 3140 3141 3142 3143 3144 3146 3147 3149 3150 3151 3151 3152 3152 3152 3153 3154 3155 3155 3156 3157 3157 3158 3159 3160 3160 3161 3161 3162 3162 3163 3163 3164
3105 3105 3104 3103 3102 3100 3099 3099 3098 3098 3097 3097 3098 3099 3099 3099 3099 3099 3099 3100 3100 3101 3101 3102 3103 3104 3105 3106 3107 3107 3108 3108 3109 3110 3111 3112 3113 3115 3116 3117 3119 3121 3123 3125 3127 3127 3129 3131 3132 3133 3134 3135 3136 3137 3138 3139 3140 3142 3143 3145 3146 3147 3148 3149 3149 3150 3150 3150 3152 3153 3153 3154 3155 3155 3156 3157 3158 3158 3159 3159 3160 3160 3161 3161 3162
3104 3103 3103 3102 3100 3099 3098 3096 3095 3095 3094 3094 3095 3096 3096 3096 3096 3095 3095 3096 3097 3097 3098 3098 3099 3100 3101 3102 3103 3104 3105 3105 3106 3106 3108 3109 3110 3112 3114 3115 3117 3119 3120 3123 3124 3125 3126 3128 3129 3130 3132 3133 3134 3135 3136 3137 3138 3140 3141 3142 3143 3144 3145 3146 3147 3147 3147 3148 3149 3150 3151 3152 3153 3153 3154 3155 3156 3156 3157 3157 3158 3158 3158 3159 3159
3102 3102 3101 3100 3099 3097 3096 3094 3093 3092 3091 3091 3091 3091 3092 3092 3092 3091 3091 3092 3093 3093 3094 3095 3095 3096 3097 3099 3100 3101 3101 3102 3102 3103 3105 3107 3108 3110 3112 3113 3115 3117 3118 3120 3122 3122 3123 3125 3126 3128 3129 3131 3132 3133 3134 3135 3136 3137 3138 3139 3140 3142 3143 3144 3144 3144 3145 3146 3147 3148 3149 3150 3151 3151 3152 3153 3154 3155 3155 3155 3156 3156 3156 3156 3157
3101 3100 3099 3098 3097 3095 3094 3092 3091 3089 3088 3087 3087 3087 3087 3087 3087 3087 3087 3088 3088 3089 3090 3090 3092 3092 3093 3095 3096 3097 3098 3099 3099 3101 3103 3104 3106 3108 3110 3111 3113 3115 3116 3117 3119 3120 3121 3122 3124 3125 3127 3128 3129 3130 3131 3132 3133 3134 3135 3137 3138 3139 3140 3141 3141 3142 3143 3145 3145 3145 3147 3148 3149 3150 3150 3151 3153 3153 3153 3153 3153 3153 3153 3154 3154
3098 3097 3097 3095 3094 3093 3092 3090 3088 3087 3085 3085 3083 3082 3082 3082 3083 3083 3083 3084 3084 3085 3085 3086 3087 3088 3089 3090 3092 3093 3094 3095 3096 3098 3100 3102 3103 3105 3107 3108 3110 3112 3113 3115 3116 3117 3118 3120 3122 3123 3125 3126 3127 3128 3129 3130 3131 3132 3133 3134 3135 3136 3137 3138 3139 3140 3141 3142 3142 3143 3144 3145 3146 3148 3149 3150 3150 3150 3150 3151 3151 3151 3151 3152 3152
3095 3095 3094 3093 3092 3090 3089 3088 3086 3084 3082 3081 3080 3079 3077 3077 3078 3079 3079 3079 3080 3081 3081 3082 3083 3084 3085 3086 3087 3088 3090 3092 3093 3095 3097 3099 3101 3103 3105 3106 3107 3109 3111 3112 3113 3114 3115 3118 3120 3121 3122 3123 3124 3125 3126 3127 3128 3129 3131 3132 3133 3134 3135 3136 3137 3138 3139 3139 3140 3141 3142 3143 3144 3145 3146 3147 3148 3148 3148 3148 3149 3149 3149 3150 3150
3093 3092 3092 3091 3089 3088 3086 3085 3083 3081 3079 3078 3077 3075 3074 3073 3073 3074 3075 3075 3076 3077 3077 3078 3079 3080 3081 3082 3083 3084 3086 3088 3089 3091 3093 3096 3098 3100 3102 3104 3105 3107 3109 3111 3111 3112 3113 3116 3117 3119 3120 3120 3121 3122 3123 3124 3125 3127 3128 3129 3130 3131 3132 3133 3135 3136 3136 3137 3138 3138 3139 3141 3142 3142 3143 3144 3145 3145 3146 3147 3147 3148 3148 3148 3148
3090 3089 3089 3088 3087 3086 3084 3083 3081 3079 3077 3074 3073 3072 3071 3070 3069 3069 3070 3070 3071 3072 3073 3073 3074 3075 3076 3077 3079 3080 3082 3084 3086 3088 3090 3092 3095 3097 3099 3101 3103 3105 3107 3109 3110 3111 3112 3113 3114 3116 3117 3118 3119 3120 3120 3121 3122 3124 3125 3126 3127 3128 3129 3131 3132 3133 3134 3134 3134 3135 3136 3138 3139 3139 3140 3141 3142 3143 3144 3145 3146 3146 3146 3147 3147
3088 3087 3086 3086 3085 3084 3082 3080 3079 3078 3075 3072 3070 3069 3069 3068 3067 3066 3065 3066 3067 3067 3068 3068 3069 3070 3071 3073 3075 3077 3079 3080 3082 3085 3087 3089 3092 3094 3097 3099 3101 3103 3104 3106 3108 3109 3110 3111 3112 3113 3115 3116 3116 3117 3118 3119 3120 3121 3122 3123 3124 3125 3127 3128 3129 3130 3131 3131 3131 3132 3134 3134 3135 3136 3136 3138 3139 3141 3142 3143 3144 3144 3144 3145 3144
3086 3085 3084 3084 3083 3081 3080 3078 3077 3075 3073 3071 3069 3067 3066 3065 3064 3063 3062 3062 3062 3063 3063 3064 3065 3066 3067 3069 3071 3073 3075 3078 3080 3081 3084 3086 3089 3092 3095 3097 3099 3100 3102 3103 3105 3106 3107 3109 3110 3111 3112 3113 3114 3115 3115 3116 3117 3118 3119 3120 3121 3123 3124 3125 3126 3127 3128 3128 3129 3130 3131 3132 3133 3134 3135 3136 3137 3138 3140 3140 3141 3141 3142 3142 3142
3084 3083 3082 3081 3080 3079 3078 3077 3075 3073 3071 3069 3068 3066 3064 3063 3061 3060 3059 3059 3059 3059 3059 3059 3060 3062 3063 3064 3066 3069 3072 3075 3077 3079 3081 3084 3087 3090 3092 3094 3096 3098 3099 3101 3102 3104 3105 3106 3108 3109 3110 3111 3112 3112 3113 3114 3115 3116 3116 3117 3118 3120 3121 3122 3123 3124 3125 3126 3127 3127 3128 3130 3131 3132 3133 3134 3135 3136 3137 3138 3138 3139 3139 3139 3139
3082 3081 3080 3079 3078 3077 3076 3075 3073 3072 3070 3068 3066 3064 3062 3060 3058 3057 3056 3055 3055 3055 3055 3056 3057 3058 3060 3061 3063 3065 3068 3071 3074 3076 3079 3082 3085 3088 3090 3092 3094 3095 3097 3099 3100 3102 3103 3104 3106 3107 3108 3109 3109 3110 3111 3111 3112 3113 3114 3115 3116 3117 3118 3119 3121 3122 3122 3124 3124 3125 3126 3128 3129 3130 3131 3132 3133 3134 3134 3135 3136 3136 3136 3136 3136
3081 3079 3078 3076 3076 3075 3074 3072 3071 3070 3068 3066 3064 3062 3060 3057 3055 3053 3052 3052 3052 3052 3052 3053 3053 3055 3057 3058 3060 3063 3066 3069 3071 3074 3077 3080 3083 3086 3088 3090 3092 3093 3095 3097 3098 3100 3101 3102 3104 3105 3105 3106 3107 3108 3108 3109 3110 3110 3111 3113 3114 3115 3116 3117 3118 3119 3119 3121 3122 3123 3124 3125 3126 3127 3128 3129 3130 3131 3131 3132 3133 3133 3133 3133 3133
3079 3077 3076 3074 3073 3072 3071 3070 3069 3067 3066 3064 3063 3061 3058 3055 3052 3051 3050 3049 3049 3050 3051 3052 3053 3054 3055 3056 3059 3062 3064 3067 3069 3071 3074 3078 3081 3084 3086 3088 3090 3091 3093 3095 3096 3098 3099 3100 3101 3102 3103 3104 3105 3105 3106 3106 3107 3108 3109 3110 3112 3113 3114 3115 3116 3116 3117 3118 3119 3120 3122 3123 3123 3124 3125 3126 3127 3128 3128 3129 3130 3130 3130 3130 3130
3077 3076 3074 3072 3071 3070 3069 3068 3067 3065 3063 3062 3060 3059 3058 3055 3053 3052 3051 3050 3050 3051 3052 3052 3053 3054 3054 3056 3059 3061 3063 3065 3068 3070 3073 3076 3079 3082 3084 3086 3088 3090 3091 3093 3094 3095 3097 3098 3099 3100 3100 3101 3102 3103 3104 3104 3105 3105 3107 3108 3109 3110 3111 3112 3113 3114 3115 3116 3117 3118 3119 3120 3121 3121 3122 3123 3124 3124 3125 3125 3126 3126 3126 3126 3126
3075 3074 3072 3071 3069 3068 3067 3066 3065 3063 3061 3059 3058 3057 3057 3056 3054 3053 3053 3052 3052 3052 3052 3051 3051 3052 3054 3056 3058 3060 3063 3066 3068 3071 3073 3075 3078 3080 3082 3084 3086 3088 3089 3090 3092 3093 3094 3095 3096 3097 3098 3099 3099 3100 3101 3102 3102 3103 3104 3106 3107 3108 3109 3110 3111 3112 3113 3114 3115 3116 3117 3117 3118 3119 3119 3120 3121 3121 3122 3122 3122 3122 3122 3122 3122
3074 3073 3071 3070 3068 3066 3065 3064 3063 3062 3060 3058 3057 3056 3055 3055 3055 3054 3053 3053 3052 3051 3051 3051 3051 3052 3054 3056 3058 3060 3063 3065 3067 3070 3072 3074 3076 3078 3080 3082 3084 3086 3087 3088 3089 3090 3091 3092 3093 3094 3095 3096 3097 3098 3099 3100 3100 3101 3103 3104 3105 3106 3107 3108 3109 3110 3111 3112 3113 3113 3114 3115 3115 3116 3117 3117 3118 3118 3118 3118 3118 3119 3118 3118 3118
3073 3071 3070 3069 3067 3065 3063 3062 3061 3060 3059 3057 3056 3055 3054 3054 3054 3054 3054 3054 3053 3052 3051 3051 3052 3053 3055 3057 3058 3060 3061 3063 3065 3067 3069 3071 3073 3076 3078 3080 3082 3083 3085 3086 3087 3088 3088 3089 3090 3091 3092 3093 3094 3095 3096 3097 3098 3100 3101 3102 3103 3104 3105 3106 3107 3108 3109 3110 3110 3111 3111 3112 3113 3113 3114 3114 3114 3114 3115 3115 3115 3115 3114 3114 3113
3072 3070 3069 3068 3066 3064 3062 3061 3059 3058 3057 3056 3055 3055 3054 3054 3054 3054 3054 3054 3054 3053 3053 3053 3053 3054 3056 3057 3058 3060 3061 3063 3064 3065 3067 3069 3071 3073 3076 3078 3080 3081 3082 3083 3084 3085 3085 3086 3087 3088 3089 3090 3091 3092 3094 3095 3096 3097 3098 3099 3100 3102 3103 3104 3105 3106 3107 3107 3108 3108 3109 3109 3110 3110 3111 3111 3111 3111 3111 3111 3111 3110 3110 3109 3109
3071 3069 3068 3067 3065 3063 3061 3060 3058 3057 3056 3055 3055 3054 3053 3053 3052 3052 3053 3054 3054 3054 3054 3054 3054 3055 3055 3056 3058 3059 3061 3062 3063 3064 3066 3067 3069 3071 3073 3075 3077 3078 3079 3080 3081 3082 3082 3083 3084 3085 3086 3087 3089 3090 3091 3093 3094 3095 3096 3097 3098 3099 3100 3101 3102 3103 3104 3104 3105 3105 3106 3106 3107 3107 3107 3107 3107 3107 3107 3107 3106 3106 3105 3104 3104
3070 3068 3067 3066 3064 3062 3060 3059 3057 3056 3055 3055 3054 3053 3052 3051 3051 3051 3051 3052 3053 3053 3053 3054 3054 3055 3056 3057 3058 3059 3060 3061 3062 3063 3064 3065 3067 3069 3071 3072 3074 3075 3076 3077 3078 3079 3080 3080 3082 3083 3083 3084 3086 3087 3089 3090 3091 3092 3093 3095 3096 3096 3097 3098 3099 3100 3100 3101 3102 3102 3103 3103 3103 3103 3103 3103 3103 3103 3103 3102 3102 3101 3101 3100 3100
3070 3068 3066 3065 3063 3062 3060 3058 3057 3055 3055 3054 3053 3052 3051 3050 3050 3049 3049 3050 3050 3051 3052 3053 3054 3054 3055 3056 3057 3058 3058 3059 3060 3061 3062 3063 3065 3066 3067 3069 3070 3072 3073 3074 3075 3076 3077 3078 3079 3080 3081 3082 3083 3085 3086 3087 3088 3090 3091 3092 3093 3094 3094 3095 3096 3097 3097 3098 3098 3099 3099 3099 3099 3099 3099 3099 3099 3099 3098 3098 3098 3097 3097 3097 3096
3069 3068 3066 3064 3063 3061 3060 3058 3056 3055 3054 3053 3052 3051 3051 3050 3049 3049 3048 3048 3049 3050 3051 3052 3052 3052 3053 3054 3055 3056 3056 3057 3058 3059 3060 3061 3062 3063 3064 3065 3066 3068 3069 3070 3070 3072 3073 3074 3075 3077 3078 3079 3081 3082 3083 3084 3086 3087 3088 3089 3090 3091 3092 3092 3093 3094 3094 3095 3095 3095 3096 3096 3096 3096 3095 3095 3095 3095 3094 3094 3094 3094 3094 3093 3093
3069 3067 3066 3064 3062 3061 3059 3057 3056 3055 3053 3052 3051 3051 3050 3050 3049 3049 3048 3048 3048 3048 3049 3049 3050 3050 3051 3051 3052 3053 3054 3055 3056 3056 3057 3057 3058 3059 3060 3061 3062 3063 3064 3065 3066 3067 3069 3070 3071 3073 3074 3076 3077 3079 3080 3082 3083 3084 3086 3086 3087 3088 3088 3089 3090 3090 3091 3091 3092 3092 3092 3092 3092 3092 3092 3092 3092 3092 3092 3092 3091 3091 3090 3090 3089
3068 3067 3066 3064 3063 3061 3059 3058 3056 3055 3053 3052 3051 3050 3050 3049 3049 3049 3048 3048 3047 3047 3047 3047 3048 3049 3049 3050 3050 3051 3052 3053 3054 3055 3055 3055 3055 3056 3057 3057 3058 3059 3060 3061 3062 3063 3064 3066 3067 3069 3071 3073 3074 3075 3077 3079 3080 3081 3082 3083 3084 3084 3085 3086 3086 3087 3087 3088 3088 3088 3088 3089 3089 3089 3089 3089 3089 3089 3089 3089 3088 3088 3087 3086 3085
3067 3066 3065 3064 3063 3061 3060 3059 3057 3055 3054 3052 3051 3050 3049 3049 3048 3048 3048 3047 3047 3047 3047 3047 3047 3047 3047 3048 3049 3049 3050 3051 3052 3053 3053 3054 3054 3054 3055 3055 3056 3056 3057 3058 3059 3060 3061 3062 3064 3065 3067 3069 3070 3072 3074 3075 3077 3078 3079 3080 3081 3081 3082 3083 3083 3084 3084 3085 3085 3085 3085 3086 3086 3086 3086 3086 3086 3086 3086 3085 3085 3084 3083 3082 3081
3067 3066 3065 3064 3062 3061 3060 3059 3058 3057 3055 3053 3052 3051 3050 3049 3048 3048 3047 3047 3046 3046 3046 3046 3046 3046 3046 3046 3047 3048 3049 3049 3050 3051 3051 3052 3052 3053 3053 3054 3054 3055 3056 3057 3058 3058 3059 3060 3061 3063 3064 3065 3067 3069 3070 3072 3074 3075 3076 3077 3078 3079 3079 3080 3081 3081 3082 3082 3082 3082 3082 3083 3083 3083 3083 3083 3083 3083 3082 3082 3081 3080 3079 3078 3077
3067 3066 3065 3064 3062 3061 3060 3059 3058 3057 3056 3055 3053 3052 3051 3050 3049 3048 3048 3047 3046 3045 3045 3044 3044 3044 3044 3044 3045 3046 3046 3047 3047 3048 3048 3049 3050 3050 3051 3051 3052 3053 3053 3054 3056 3056 3057 3058 3059 3060 3061 3063 3065 3067 3068 3070 3072 3073 3074 3075 3076 3076 3077 3078 3078 3079 3079 3080 3080 3080 3080 3080 3080 3080 3080 3080 3080 3080 3079 3078 3078 3077 3076 3075 3074
3067 3065 3064 3064 3063 3062 3060 3059 3058 3058 3057 3055 3054 3053 3052 3051 3050 3050 3049 3048 3047 3046 3045 3044 3043 3043 3043 3043 3043 3044 3044 3045 3045 3045 3045 3046 3046 3047 3048 3049 3050 3050 3051 3052 3053 3054 3055 3055 3056 3057 3059 3061 3063 3065 3067 3068 3069 3070 3071 3072 3073 3074 3075 3076 3076 3077 3077 3077 3077 3077 3077 3077 3077 3077 3077 3077 3077 3076 3076 3075 3074 3074 3073 3072 3071
3067 3066 3065 3064 3063 3062 3061 3060 3059 3058 3057 3056 3055 3054 3053 3052 3051 3051 3050 3049 3048 3047 3046 3045 3044 3044 3043 3043 3043 3043 3043 3043 3043 3044 3044 3044 3044 3045 3046 3046 3047 3048 3049 3049 3051 3052 3052 3053 3054 3056 3058 3060 3062 3064 3065 3066 3067 3068 3069 3070 3071 3072 3073 3074 3074 3075 3075 3075 3075 3075 3075 3075 3075 3075 3075 3074 3074 3073 3073 3072 3072 3071 3070 3069 3068
3068 3066 3065 3064 3063 3062 3062 3061 3059 3058 3057 3056 3055 3054 3054 3053 3052 3051 3050 3050 3049 3048 3048 3047 3046 3045 3045 3044 3044 3044 3044 3043 3043 3043 3043 3043 3043 3044 3044 3045 3045 3046 3047 3048 3049 3050 3051 3052 3053 3055 3057 3059 3061 3063 3064 3065 3066 3067 3068 3069 3069 3070 3071 3072 3072 3073 3073 3073 3073 3073 3073 3073 3072 3072 3072 3072 3071 3071 3070 3070 3069 3068 3066 3065 3064
3069 3067 3066 3065 3064 3063 3062 3061 3060 3059 3058 3057 3056 3055 3054 3053 3052 3051 3051 3050 3049 3049 3048 3047 3047 3046 3046 3045 3045 3045 3044 3044 3044 3044 3043 3043 3043 3043 3044 3044 3044 3045 3046 3047 3048 3049 3050 3051 3052 3054 3056 3058 3060 3062 3063 3064 3065 3066 3067 3067 3068 3068 3069 3070 3070 3071 3071 3071 3071 3070 3070 3070 3070 3069 3069 3069 3069 3068 3067 3066 3066 3065 3063 3063 3062
3070 3068 3067 3066 3065 3064 3063 3062 3061 3060 3059 3058 3057 3056 3055 3054 3053 3052 3051 3050 3049 3049 3048 3048 3047 3047 3046 3046 3045 3045 3045 3044 3044 3044 3044 3044 3044 3044 3044 3044 3044 3044 3045 3046 3047 3048 3049 3050 3052 3054 3056 3058 3060 3061 3062 3063 3064 3064 3065 3066 3066 3066 3067 3067 3068 3068 3069 3068 3068 3068 3068 3067 3067 3067 3067 3066 3066 3065 3064 3063 3062 3062 3061 3060 3060
3070 3069 3068 3067 3066 3065 3064 3063 3062 3061 3060 3059 3057 3056 3055 3054 3053 3052 3051 3050 3049 3049 3048 3047 3047 3046 3046 3046 3045 3045 3044 3044 3044 3044 3044 3044 3044 3044 3044 3044 3044 3044 3045 3045 3046 3047 3048 3050 3051 3054 3056 3057 3059 3060 3060 3061 3062 3063 3063 3064 3064 3064 3065 3065 3066 3066 3066 3066 3066 3065 3065 3065 3065 3064 3064 3063 3063 3062 3061 3061 3060 3059 3059 3058 3058
3072 3071 3069 3068 3067 3066 3065 3064 3063 3061 3060 3059 3058 3057 3056 3055 3053 3052 3051 3050 3049 3048 3048 3047 3046 3046 3046 3046 3045 3045 3044 3044 3044 3044 3044 3044 3044 3044 3044 3045 3045 3045 3045 3046 3047 3048 3049 3050 3051 3053 3055 3056 3057 3058 3059 3059 3060 3061 3062 3062 3062 3063 3063 3064 3064 3064 3064 3064 3064 3063 3063 3063 3062 3062 3061 3061 3060 3060 3059 3059 3058 3058 3057 3056 3055
3073 3072 3070 3069 3068 3067 3066 3065 3064 3062 3061 3060 3059 3058 3056 3055 3054 3052 3051 3050 3048 3047 3047 3046 3046 3045 3045 3045 3045 3045 3045 3044 3044 3044 3044 3044 3044 3044 3044 3044 3045 3045 3046 3046 3047 3048 3049 3050 3051 3052 3053 3054 3055 3056 3057 3058 3059 3060 3060 3061 3061 3061 3061 3062 3062 3062 3062 3062 3062 3061 3061 3060 3060 3060 3059 3059 3058 3058 3057 3057 3056 3056 3055 3054 3053
3073 3072 3071 3070 3069 3068 3067 3066 3064 3063 3062 3061 3060 3058 3057 3056 3054 3053 3051 3050 3049 3047 3046 3045 3045 3044 3044 3044 3044 3044 3044 3044 3044 3044 3044 3044 3044 3044 3044 3044 3045 3045 3046 3047 3047 3048 3049 3050 3051 3051 3052 3053 3054 3055 3056 3057 3058 3058 3059 3059 3059 3059 3060 3060 3060 3060 3060 3060 3059 3059 3059 3058 3058 3058 3057 3057 3057 3056 3056 3055 3055 3054 3053 3052 3052
3074 3073 3072 3071 3070 3068 3067 3066 3065 3064 3063 3062 3061 3059 3057 3056 3055 3053 3051 3050 3049 3047 3046 3045 3044 3043 3043 3043 3042 3042 3042 3043 3043 3043 3043 3043 3044 3044 3044 3044 3045 3045 3046 3046 3047 3048 3049 3049 3050 3051 3052 3053 3053 3054 3055 3056 3056 3057 3057 3057 3057 3058 3058 3058 3058 3058 3058 3058 3057 3057 3056 3056 3056 3056 3056 3055 3055 3054 3054 3053 3053 3052 3052 3051 3051
3075 3073 3072 3071 3070 3069 3067 3066 3065 3064 3063 3062 3061 3059 3058 3056 3055 3053 3051 3050 3048 3047 3046 3045 3044 3043 3042 3042 3042 3041 3041 3041 3042 3042 3043 3043 3043 3043 3044 3044 3044 3045 3045 3046 3047 3048 3048 3049 3050 3051 3051 3052 3053 3053 3054 3054 3055 3055 3055 3056 3056 3056 3056 3056 3056 3056 3056 3056 3055 3055 3055 3055 3054 3054 3054 3053 3053 3052 3052 3052 3052 3051 3051 3050 3049
3075 3073 3072 3071 3070 3069 3067 3066 3065 3064 3062 3061 3060 3059 3058 3057 3055 3053 3051 3050 3048 3047 3046 3045 3044 3043 3042 3041 3041 3041 3040 3040 3040 3041 3041 3042 3042 3043 3043 3044 3044 3045 3045 3045 3046 3047 3047 3048 3049 3050 3051 3051 3052 3052 3053 3053 3053 3054 3054 3054 3054 3054 3054 3054 3054 3054 3054 3054 3054 3054 3054 3053 3053 3053 3052 3052 3051 3051 3051 3051 3050 3050 3049 3048 3047
3075 3073 3072 3071 3070 3068 3067 3066 3065 3063 3062 3060 3059 3058 3057 3056 3055 3053 3051 3050 3049 3047 3046 3045 3044 3043 3042 3041 3041 3040 3040 3039 3039 3040 3040 3041 3041 3042 3042 3043 3043 3044 3044 3045 3045 3046 3046 3047 3048 3049 3049 3050 3051 3051 3052 3052 3052 3053 3053 3053 3053 3053 3053 3053 3054 3054 3054 3053 3053 3053 3052 3052 3052 3052 3051 3051 3051 3050 3050 3049 3048 3048 3047 3046 3046
3075 3073 3072 3070 3069 3068 3067 3066 3064 3063 3062 3060 3059 3057 3056 3055 3054 3053 3051 3050 3049 3048 3046 3045 3044 3043 3041 3040 3040 3040 3039 3039 3039 3039 3039 3040 3040 3041 3041 3042 3042 3043 3043 3044 3044 3045 3045 3046 3047 3048 3048 3049 3050 3050 3051 3051 3051 3051 3051 3052 3052 3052 3053 3053 3053 3053 3053 3052 3052 3052 3051 3051 3051 3051 3051 3050 3050 3049 3048 3047 3047 3046 3045 3045 3045
3074 3073 3072 3070 3069 3068 3066 3065 3064 3063 3061 3060 3058 3057 3056 3055 3053 3052 3051 3049 3048 3047 3047 3045 3044 3043 3041 3040 3039 3039 3039 3039 3038 3038 3038 3039 3039 3040 3040 3041 3041 3042 3042 3043 3043 3044 3045 3045 3046 3047 3048 3048 3049 3049 3050 3050 3050 3050 3051 3051 3051 3052 3052 3052 3052 3052 3052 3052 3051 3051 3051 3051 3051 3050 3049 3049 3048 3047 3047 3046 3046 3045 3045 3045 3044
3074 3073 3071 3070 3069 3067 3066 3065 3063 3062 3061 3059 3058 3057 3056 3054 3053 3051 3050 3049 3048 3047 3046 3045 3044 3042 3041 3039 3038 3038 3038 3038 3038 3037 3037 3038 3038 3039 3039 3040 3041 3041 3042 3042 3043 3044 3044 3045 3046 3047 3047 3048 3048 3049 3049 3049 3050 3050 3050 3051 3051 3051 3051 3051 3051 3051 3052 3052 3052 3052 3051 3051 3050 3049 3048 3048 3047 3047 3046 3046 3046 3045 3045 3045 3044
3073 3072 3071 3070 3068 3067 3066 3064 3063 3062 3061 3059 3058 3057 3055 3054 3052 3051 3050 3049 3048 3047 3046 3046 3044 3042 3040 3039 3038 3037 3037 3037 3037 3037 3037 3037 3038 3038 3039 3039 3040 3040 3041 3042 3043 3043 3044 3045 3046 3046 3047 3047 3048 3048 3049 3049 3049 3050 3050 3050 3050 3051 3051 3051 3051 3052 3052 3052 3051 3051 3050 3050 3049 3048 3048 3047 3047 3047 3046 3046 3046 3045 3045 3044 3044
3073 3071 3070 3069 3068 3066 3065 3064 3062 3061 3060 3059 3058 3056 3055 3054 3052 3051 3050 3048 3047 3046 3046 3045 3044 3042 3040 3039 3038 3037 3036 3036 3036 3036 3036 3037 3037 3037 3038 3039 3039 3040 3040 3041 3042 3043 3043 3044 3045 3045 3046 3047 3047 3047 3048 3048 3049 3049 3050 3050 3050 3051 3051 3051 3051 3051 3051 3051 3050 3050 3050 3049 3049 3049 3048 3048 3047 3047 3046 3046 3046 3045 3044 3044 3043
3072 3071 3069 3068 3067 3065 3064 3063 3062 3060 3059 3058 3057 3056 3055 3053 3052 3050 3049 3048 3047 3046 3046 3045 3043 3042 3041 3039 3037 3036 3036 3035 3035 3035 3036 3036 3037 3037 3037 3038 3039 3039 3040 3041 3041 3042 3043 3044 3044 3045 3045 3046 3046 3047 3047 3048 3049 3049 3050 3050 3050 3051 3051 3051 3051 3051 3050 3050 3050 3049 3049 3049 3049 3049 3048 3048 3047 3047 3046 3046 3045 3044 3044 3043 3042